Flag for U.S.A. Weather past 2 weeks in Wake Island, Wake Island, U.S.A.

Now
81 °F

Haze.


Feels Like: 83 °F
Forecast: 74 / 77 °F
Wind: 23 mph from East

Location: Wake Island Airfld

Current Time: Mar 7, 2015 at 5:24:45 PM

Latest Report: Mar 7, 2015 at 4:58 PM


Visibility: 4 mi

Pressure: 29.88 "Hg

Humidity: 59%

Dew point: 66 °F

Location of Wake IslandLocation

Historic Weather in Wake Island — Graph

°F

Wake Island temperature yesterday

Maximum temperature yesterday: 82 °F (at 1:58 PM)
Minimum temperature yesterday: 74 °F (at 6:58 AM)
Average temperature yesterday: 78 °F

Past Weeks' High & Low Weather Summary

 TemperatureHumidityPressure
High83 °F (Mar 7, 2:58 PM)94% (Feb 21, 6:01 AM)30.11 "Hg (Feb 21, 6:01 AM)
Low71 °F (Feb 24, 4:58 AM)44% (Feb 23, 1:58 PM)29.80 "Hg (Feb 21, 2:58 PM)
Average76 °F69%29.97 "Hg
* Reported Feb 20 3:58 PM — Mar 7 3:58 PM, Wake Island, Weather by CustomWeather, © 2015

Note: Actual official high and low records may vary slightly from our data, if they occured in-between our weather recording intervals... More about our weather records

Advertising

Wake Island weather history for previous 24 hours

 ConditionsComfort  
Time TempWeatherWind HumidityBarometerVisibility
3:58 PM
Sat, Mar 7
82 °FSunny.21 mph56%29.87 "Hg5 mi
2:58 PM83 °FHaze.21 mph55%29.89 "Hg5 mi
1:58 PM83 °FScattered clouds.21 mph59%29.91 "Hg5 mi
12:58 PM83 °FHaze.23 mph61%29.92 "Hg6 mi
11:58 AM82 °FHaze.23 mph61%29.95 "Hg6 mi
10:58 AM82 °FHaze.20 mph64%29.97 "Hg6 mi
9:58 AM79 °FHaze.22 mph70%29.96 "Hg6 mi
8:58 AM78 °FScattered clouds.20 mph71%29.96 "Hg6 mi
7:58 AM76 °FPassing clouds.20 mph73%29.95 "Hg6 mi
6:58 AM76 °FPassing clouds.23 mph74%29.92 "HgN/A
5:58 AM76 °FPassing clouds.20 mph75%29.91 "HgN/A
4:58 AM76 °FPassing clouds.21 mph77%29.91 "HgN/A
3:58 AM76 °FPassing clouds.21 mph78%29.92 "HgN/A
2:58 AM76 °FPassing clouds.21 mph77%29.92 "HgN/A
1:58 AM76 °FPassing clouds.22 mph80%29.94 "HgN/A
12:58 AM77 °FPartly cloudy.20 mph80%29.95 "HgN/A
12:00 AM77 °FLight rain. Passing clouds.23 mph79%29.93 "HgN/A
11:03 PM
Fri, Mar 6
77 °FPartly cloudy.22 mph79%29.93 "HgN/A
9:58 PM77 °FPassing clouds.26 mph79%29.95 "HgN/A
8:58 PM77 °FPartly cloudy.21 mph76%29.94 "HgN/A
7:58 PM77 °FBroken clouds.21 mph75%29.93 "HgN/A
6:58 PM78 °FPartly sunny.21 mph74%29.91 "Hg4 mi
5:58 PM79 °FScattered clouds.21 mph70%29.90 "Hg3 mi
Weather by CustomWeather, © 2015

See weather overviewHow to use our weather pages